Location: *
(50.5492°N, 7.7469°E)
Time: 22:20:29
(UTC+00:00)

STARLINK-41 - Pass Details

Date: 21 October 2019
Orbit: 549 x 551 km, 53.0° (Epoch: 18 November)

Event Time Altitude Azimuth Distance (km) Brightness Sun altitude
Rises 17:06:57 0° 266° (W) 2,716 9.8 -7.2°
Reaches altitude 10° 17:09:12 10° 269° (W) 1,823 8.0 -7.6°
Maximum altitude 17:13:20 64° 352° (N) 610 3.8 -8.2°
Enters shadow 17:17:13 11° 74° (ENE) 1,733 5.5 -8.9°
